Home   Weather   32°03'N, 118°45'E   Past weeks
Flag for China

Past Weather in 32°03'N, 118°45'E, China — Yesterday and Last 2 Weeks

Now
41 °F

Light rain. Fog.


Feels Like: 39 °F
Forecast: 47 / 36 °F
Wind: 3 mph from East

Location: Nanjing

Current Time: Feb 18, 2019 at 5:16:24 pm

Latest Report: Feb 18, 2019 at 4:00 pm


Visibility: 2 mi

Pressure: 30.07 "Hg

Humidity: 100%

Dew Point: 41 °F

Location of 32°03'N, 118°45'ELocation

Past Weather in 32°03'N, 118°45'E — Graph

°F

32°03'N, 118°45'E Temperature Yesterday

Maximum temperature yesterday: 43 °F (at 4:00 pm)
Minimum temperature yesterday: 36 °F (at 3:00 am)
Average temperature yesterday: 39 °F

High & Low Weather Summary for the Past Weeks

 TemperatureHumidityPressure
High64 °F (Feb 6, 2:00 pm)100% (Feb 3, 10:00 pm)30.57 "Hg (Feb 3, 10:00 pm)
Low28 °F (Feb 4, 5:00 am)41% (Feb 4, 3:00 pm)29.86 "Hg (Feb 6, 2:00 pm)
Average39 °F86%30.33 "Hg
* Reported Feb 3 4:00 pm — Feb 18 4:00 pm, 32°03'N, 118°45'E. Weather by CustomWeather, © 2019

Note: Actual official high and low records may vary slightly from our data, if they occured in-between our weather recording intervals... More about our weather records

Advertising

32°03'N, 118°45'E Weather History for the Previous 24 Hours

Scroll right to see more
 ConditionsComfort  
Time TempWeatherWind HumidityBarometerVisibility
4:00 pm
Mon, Feb 18
41 °FLight rain. Fog.3 mph100%30.07 "Hg2 mi
3:00 pm41 °FLight rain. Fog.6 mph100%30.09 "Hg2 mi
2:00 pm41 °FLight rain. Fog.6 mph100%30.09 "Hg2 mi
1:00 pm41 °FLight rain. Fog.8 mph93%30.12 "Hg2 mi
12:00 pm41 °FLight rain. Fog.8 mph93%30.15 "Hg3 mi
11:00 am39 °FLight rain. Fog.10 mph100%30.15 "Hg1 mi
10:00 am39 °FLight rain. Fog.8 mph93%30.18 "Hg2 mi
9:00 am39 °FLight rain. Fog.8 mph93%30.21 "Hg1 mi
8:00 am37 °FLight rain. Fog.13 mph100%30.18 "Hg1 mi
7:00 am37 °FLight rain. Fog.10 mph93%30.18 "Hg1 mi
6:00 am37 °FLight rain. Fog.10 mph93%30.18 "Hg1 mi
5:00 am37 °FLight rain. Fog.13 mph93%30.18 "Hg1 mi
4:00 am37 °FFog.13 mph93%30.21 "Hg2 mi
3:00 am37 °FLight rain. Fog.8 mph93%30.24 "Hg2 mi
2:00 am37 °FFog.3 mph87%30.27 "Hg3 mi
1:00 am39 °FLight rain. Overcast.3 mph81%30.27 "Hg4 mi
12:00 am39 °FLight rain. Clear.6 mph75%30.30 "HgN/A
11:00 pm
Sun, Feb 17
41 °FLight rain. Clear.6 mph66%30.33 "HgN/A
10:00 pm41 °FClear.8 mph61%30.30 "Hg10 mi
9:00 pm41 °FClear.6 mph61%30.36 "Hg10 mi
8:00 pm41 °FClear.6 mph61%30.33 "Hg10 mi
7:00 pm41 °FClear.8 mph57%30.33 "Hg10 mi
6:00 pm41 °FClear.8 mph53%30.33 "Hg10 mi
5:00 pm41 °FSunny.8 mph53%30.33 "Hg10 mi
Weather by CustomWeather, © 2019

See weather overview